Location: Helion Bumpstead
(52.0500°N, 0.4000°E)
Time: 21:34:22
(UTC+00:00)

Cosmos 1110 Rocket - Pass Details

Date: 15 November 2025
Orbit: 748 x 776 km, 74.0° (Epoch: 14 December)

Event Time Altitude Azimuth Distance (km) Brightness Sun altitude
Rises 05:57:34 0° 205° (SSW) 3,238 7.1 -12.4°
Reaches altitude 10° 05:59:56 10° 207° (SSW) 2,318 6.4 -12.0°
Maximum altitude 06:05:13 83° 295° (WNW) 789 4.0 -11.2°
Drops below altitude 10° 06:10:34 10° 24° (NNE) 2,339 6.6 -10.4°
Sets 06:12:57 0° 26° (NNE) 3,270 7.4 -10.1°
